Location: ?????????
(53.2086°N, 54.0693°E)
Time: 12:45:19
(UTC+00:00)

Cosmos 1689 Rocket - Pass Details

Date: 08 December 2019
Orbit: 371 x 389 km, 97.5° (Epoch: 19 January)

Event Time Altitude Azimuth Distance (km) Brightness Sun altitude
Exits shadow 13:49:39 - 2° (N) 1,898 5.4 -14.3°
Reaches altitude 10° 13:50:48 10° 354° (N) 1,441 4.8 -14.5°
Maximum altitude 13:53:30 29° 293° (WNW) 762 4.1 -14.8°
Drops below altitude 10° 13:56:11 10° 231° (SW) 1,424 6.1 -15.2°
Sets 13:58:16 0° 220° (SW) 2,270 7.0 -15.5°
